Downstream station:
SHEF ID: FRGO2 Cimarron River near Forgan, OK
STATION TYPE:
Regulating: Stage = 5.00, Flow = 511
PRECIP STAGE RIV-FLOW BAT-LOAD
in ft cfs volt
Ccp-Rev Ccp-Rev Ccp-Rev Ccp-Rev
(US/Central)
01/15 00:00 0.00 1.81 14 12.57
01/15 01:00 0.00 1.80 14 12.57
01/15 02:00 0.00 1.79 14 12.49
01/15 03:00 0.00 1.81 14 ----
01/15 04:00 0.00 1.80 14 12.49
01/15 05:00 0.00 1.80 14 12.41
01/15 06:00 0.00 1.81 14 12.41
01/15 07:00 0.00 1.79 14 12.41
01/15 08:00 0.00 1.78 14 12.41
01/15 09:00 0.00 1.78 14 12.33
01/15 10:00 0.00 1.80 14 12.41
01/15 11:00 0.00 1.78 14 12.89
01/15 12:00 0.00 1.81 14 13.53
01/15 13:00 0.00 1.81 14 13.29
01/15 14:00 0.00 1.80 14 13.29
01/15 15:00 0.00 1.80 14 13.29
01/15 16:00 0.00 1.83 15 13.29
01/15 17:00 0.00 1.83 15 13.29
01/15 18:00 0.00 1.82 15 13.13
01/15 19:00 0.00 1.83 15 12.81
01/15 20:00 0.00 1.83 15 12.65
01/15 21:00 0.00 1.84 15 12.57
01/15 22:00 0.00 1.82 15 12.57
01/15 23:00 0.00 1.82 15 12.49